Moorhead, MN

5:38 PM CDT on April 24, 2017 (GMT -0500)
Moorhead Municipal

Weather History for KJKJ - August, 2013

Change the Weather History Date:

Saturday, August 10, 2013

  Actual Average (KFAR) Record (KFAR)
Temperature  
Mean Temperature 62 °F -  
Max Temperature 73 °F 80 °F 98 °F (1988)
Min Temperature 50 °F 54 °F 41 °F (1967)
Degree Days  
Heating Degree Days 4    
Growing Degree Days 12 (Base 50)    
Moisture  
Dew Point 55 °F    
Average Humidity 80    
Maximum Humidity 100    
Minimum Humidity 47    
Precipitation  
Precipitation 0.00 in - - ()
Sea Level Pressure  
Sea Level Pressure 30.16 in    
Wind  
Wind Speed 2 mph (NW)    
Max Wind Speed 7 mph    
Max Gust Speed -    
Visibility 10 miles    
Events      
Averages and records for this station are not official NWS values.
T = Trace of Precipitation, MM = Missing Value Source: NWS Daily Summary

Daily Weather History Graph

Daily Weather History Graph

Search for Another Location

Airport or City:

Trip Planner

Search our weather history database for the weather conditions in past years. The results will help you decide how hot, cold, wet, or windy it might be!

Date:

Astronomy

Aug. 10, 2013 Rise Set
Actual Time 6:18 AM CDT 8:44 PM CDT
Civil Twilight 5:44 AM CDT 9:18 PM CDT
Nautical Twilight 5:01 AM CDT 10:00 PM CDT
Astronomical Twilight 4:12 AM CDT 10:49 PM CDT
Moon 10:24 AM CDT (8/10) 10:06 PM CDT (8/10)
Length of Visible Light 15h 34m
Length of Day
14h 26m
Waxing Crescent, 14% of the Moon is Illuminated
Aug 10
Waxing Crescent
Aug 14
First Quarter
Aug 20
Full
Aug 28
Last Quarter
Sep 5
New

Hourly Weather History & Observations

Time (CDT) Temp. Dew Point Humidity Pressure Visibility Wind Dir Wind Speed Gust Speed Precip Events Conditions
12:14 AM 60.8 °F 57.2 °F 88% 30.16 in 10.0 mi Calm Calm - N/A   Overcast
12:35 AM 60.8 °F 59.0 °F 94% 30.16 in 10.0 mi Calm Calm - N/A   Overcast
12:55 AM 60.8 °F 59.0 °F 94% 30.17 in 10.0 mi Calm Calm - N/A   Overcast
1:15 AM 59.0 °F 59.0 °F 100% 30.18 in 10.0 mi NNW 3.5 mph - N/A   Overcast
1:35 AM 59.0 °F 59.0 °F 100% 30.18 in 10.0 mi North 3.5 mph - N/A   Overcast
1:54 AM 59.0 °F 59.0 °F 100% 30.18 in 10.0 mi North 3.5 mph - N/A   Overcast
2:15 AM 59.0 °F 57.2 °F 94% 30.18 in 10.0 mi North 4.6 mph - N/A   Mostly Cloudy
2:35 AM 57.2 °F 57.2 °F 100% 30.18 in 10.0 mi North 4.6 mph - N/A   Mostly Cloudy
2:54 AM 55.4 °F 55.4 °F 100% 30.18 in 10.0 mi North 5.8 mph - N/A   Scattered Clouds
3:15 AM 55.4 °F 55.4 °F 100% 30.18 in 10.0 mi North 5.8 mph - N/A   Clear
3:35 AM 55.4 °F 55.4 °F 100% 30.19 in 10.0 mi North 4.6 mph - N/A   Clear
3:54 AM 53.6 °F 53.6 °F 100% 30.19 in 10.0 mi Calm Calm - N/A   Clear
4:15 AM 51.8 °F 51.8 °F 100% 30.19 in 10.0 mi NNW 4.6 mph - N/A   Clear
4:34 AM 51.8 °F 51.8 °F 100% 30.20 in 10.0 mi Calm Calm - N/A   Clear
4:55 AM 51.8 °F 51.8 °F 100% 30.19 in 10.0 mi North 3.5 mph - N/A   Clear
5:15 AM 50.0 °F 50.0 °F 100% 30.20 in 10.0 mi North 4.6 mph - N/A   Clear
5:34 AM 50.0 °F 50.0 °F 100% 30.20 in 10.0 mi North 5.8 mph - N/A   Clear
5:55 AM 50.0 °F 50.0 °F 100% 30.19 in 10.0 mi Calm Calm - N/A   Clear
6:15 AM 51.8 °F 51.8 °F 100% 30.20 in 10.0 mi Calm Calm - N/A   Clear
6:34 AM 50.0 °F 50.0 °F 100% 30.20 in 10.0 mi Calm Calm - N/A   Clear
6:55 AM 51.8 °F 51.8 °F 100% 30.20 in 10.0 mi Calm Calm - N/A   Scattered Clouds
7:15 AM 51.8 °F 51.8 °F 100% 30.21 in 10.0 mi Calm Calm - N/A   Mostly Cloudy
7:34 AM 53.6 °F 53.6 °F 100% 30.21 in 10.0 mi Calm Calm - N/A   Mostly Cloudy
7:55 AM 53.6 °F 53.6 °F 100% 30.21 in 10.0 mi Calm Calm - N/A   Overcast
8:15 AM 55.4 °F 55.4 °F 100% 30.21 in 10.0 mi Calm Calm - N/A   Overcast
8:34 AM 55.4 °F 55.4 °F 100% 30.21 in 10.0 mi Calm Calm - N/A   Overcast
8:55 AM 57.2 °F 57.2 °F 100% 30.21 in 10.0 mi Calm Calm - N/A   Overcast
9:14 AM 57.2 °F 57.2 °F 100% 30.21 in 10.0 mi Calm Calm - N/A   Overcast
9:35 AM 57.2 °F 57.2 °F 100% 30.21 in 10.0 mi Calm Calm - N/A   Overcast
9:55 AM 59.0 °F 57.2 °F 94% 30.21 in 10.0 mi Calm Calm - N/A   Overcast
10:14 AM 60.8 °F 57.2 °F 88% 30.21 in 10.0 mi Calm Calm - N/A   Overcast
10:35 AM 60.8 °F 59.0 °F 94% 30.20 in 10.0 mi Calm Calm - N/A   Overcast
10:55 AM 62.6 °F 59.0 °F 88% 30.20 in 10.0 mi Calm Calm - N/A   Mostly Cloudy
11:14 AM 62.6 °F 57.2 °F 82% 30.20 in 10.0 mi Calm Calm - N/A   Mostly Cloudy
11:35 AM 64.4 °F 55.4 °F 73% 30.20 in 10.0 mi Calm Calm - N/A   Scattered Clouds
11:55 AM 66.2 °F 53.6 °F 64% 30.20 in 10.0 mi West 3.5 mph - N/A   Mostly Cloudy
12:14 PM 66.2 °F 53.6 °F 64% 30.20 in 10.0 mi Calm Calm - N/A   Mostly Cloudy
12:35 PM 66.2 °F 51.8 °F 60% 30.20 in 10.0 mi Calm Calm - N/A   Mostly Cloudy
12:55 PM 68.0 °F 53.6 °F 60% 30.19 in 10.0 mi SW 5.8 mph - N/A   Scattered Clouds
1:14 PM 66.2 °F 53.6 °F 64% 30.19 in 10.0 mi Calm Calm - N/A   Scattered Clouds
1:35 PM 66.2 °F 53.6 °F 64% 30.18 in 10.0 mi Calm Calm - N/A   Scattered Clouds
1:55 PM 68.0 °F 53.6 °F 60% 30.17 in 10.0 mi WSW 3.5 mph - N/A   Scattered Clouds
2:14 PM 68.0 °F 53.6 °F 60% 30.16 in 10.0 mi Calm Calm - N/A   Scattered Clouds
2:35 PM 69.8 °F 53.6 °F 56% 30.16 in 10.0 mi Calm Calm - N/A   Scattered Clouds
2:55 PM 69.8 °F 53.6 °F 56% 30.16 in 10.0 mi South 4.6 mph - N/A   Scattered Clouds
3:14 PM 69.8 °F 53.6 °F 56% 30.15 in 10.0 mi Calm Calm - N/A   Scattered Clouds
3:35 PM 69.8 °F 55.4 °F 60% 30.14 in 10.0 mi ESE 5.8 mph - N/A   Clear
3:55 PM 71.6 °F 53.6 °F 53% 30.14 in 10.0 mi Calm Calm - N/A   Clear
4:14 PM 71.6 °F 53.6 °F 53% 30.13 in 10.0 mi ESE 4.6 mph - N/A   Scattered Clouds
4:35 PM 71.6 °F 53.6 °F 53% 30.13 in 10.0 mi South 3.5 mph - N/A   Clear
4:55 PM 71.6 °F 53.6 °F 53% 30.12 in 10.0 mi SW 3.5 mph - N/A   Scattered Clouds
5:14 PM 71.6 °F 53.6 °F 53% 30.12 in 10.0 mi South 3.5 mph - N/A   Scattered Clouds
5:35 PM 73.4 °F 53.6 °F 50% 30.11 in 10.0 mi SSW 3.5 mph - N/A   Scattered Clouds
5:54 PM 73.4 °F 53.6 °F 50% 30.11 in 10.0 mi Calm Calm - N/A   Clear
6:14 PM 73.4 °F 53.6 °F 50% 30.10 in 10.0 mi WSW 6.9 mph - N/A   Clear
6:35 PM 73.4 °F 53.6 °F 50% 30.10 in 10.0 mi Calm Calm - N/A   Clear
6:54 PM 73.4 °F 51.8 °F 47% 30.09 in 10.0 mi WSW 3.5 mph - N/A   Clear
7:15 PM 71.6 °F 53.6 °F 53% 30.08 in 10.0 mi Calm Calm - N/A   Clear
7:35 PM 71.6 °F 55.4 °F 57% 30.08 in 10.0 mi Calm Calm - N/A   Clear
7:54 PM 71.6 °F 57.2 °F 60% 30.07 in 10.0 mi Calm Calm - N/A   Clear
8:15 PM 69.8 °F 57.2 °F 64% 30.07 in 10.0 mi Calm Calm - N/A   Clear
8:35 PM 69.8 °F 57.2 °F 64% 30.08 in 10.0 mi Calm Calm - N/A   Clear
8:54 PM 68.0 °F 57.2 °F 68% 30.08 in 10.0 mi Calm Calm - N/A   Clear
9:15 PM 66.2 °F 60.8 °F 83% 30.08 in 10.0 mi Calm Calm - N/A   Clear
9:34 PM 64.4 °F 60.8 °F 88% 30.09 in 10.0 mi Calm Calm - N/A   Clear
9:55 PM 60.8 °F 57.2 °F 88% 30.09 in 10.0 mi Calm Calm - N/A   Clear
10:15 PM 62.6 °F 57.2 °F 82% 30.09 in 10.0 mi Calm Calm - N/A   Clear
10:34 PM 64.4 °F 57.2 °F 77% 30.08 in 10.0 mi Calm Calm - N/A   Clear
10:55 PM 59.0 °F 57.2 °F 94% 30.08 in 10.0 mi Calm Calm - N/A   Clear
11:15 PM 60.8 °F 59.0 °F 94% 30.08 in 10.0 mi Calm Calm - N/A   Clear
11:34 PM 62.6 °F 57.2 °F 82% 30.07 in 10.0 mi SE 4.6 mph - N/A   Clear
11:55 PM 62.6 °F 57.2 °F 82% 30.08 in 10.0 mi SE 4.6 mph - N/A   Clear